Location: ?????
(31.7405°N, 35.1927°E)
Time: 04:07:25
(UTC+00:00)

BREEZE-M DEB (TANK) - Pass Details

Date: 17 February 2020
Orbit: 322 x 11936 km, 49.7° (Epoch: 29 March)

Event Time Altitude Azimuth Distance (km) Brightness Sun altitude
Exits shadow 02:31:32 52° 293° (WNW) 1,072 4.4 -23.7°
Maximum altitude 02:32:49 77° 222° (SW) 1,057 4.6 -23.4°
Drops below altitude 10° 02:45:56 10° 139° (SE) 6,041 9.2 -20.6°
Sets 02:54:16 0° 138° (SE) 8,943 10.2 -18.8°
